{"data":{"norad_id":40111,"epoch":"2026-05-25T03:55:53.513184Z","epoch_age_seconds":57937,"freshness":"FRESH","line1":"1 40111U 14047C   26145.16381381  .00000022  00000+0  12031-3 0  9995","line2":"2 40111  63.3781  79.0681 0388141  14.9571 346.2558 13.45447964579191","mean_motion":13.45447964,"eccentricity":0.0388141,"inclination_deg":63.3781,"raan_deg":79.0681,"arg_perigee_deg":14.9571,"mean_anomaly_deg":346.2558,"bstar":0.00012031,"rev_number":57919,"period_min":107.02755056531,"perigee_km":799.22132731509,"apogee_km":1378.8858934562,"semimajor_km":7467.1906103857,"source":"CELESTRAK","updated_at":"2026-05-25T13:37:55.471972Z"}}